Location: Krakow
(50.0830°N, 19.9170°E)
Time: 15:07:58
(UTC+02:00)

Tiros 1 despin weight - Visible Passes

Search period start: 17 July 2025 00:00
Search period end: 27 July 2025 00:00
Orbit: 562 x 601 km, 48.2° (Epoch: 16 July)

Date Brightness Start Highest point End Pass type
(mag) Time Alt. Az. Time Alt. Az. Time Alt. Az.
17 Jul ? 04:01:39 10° S 04:04:40 18° SE 04:07:40 10° E visible
18 Jul ? 04:05:24 10° SSW 04:09:01 25° SSE 04:12:37 10° E visible
19 Jul ? 04:09:25 10° SW 04:13:25 33° SSE 04:17:23 10° E visible
20 Jul ? 02:36:48 13° SSE 02:37:52 15° SE 02:40:18 10° ESE visible
21 Jul ? 02:40:57 18° SSE 02:42:10 21° SE 02:45:27 10° E visible
22 Jul ? 02:45:03 23° S 02:46:31 28° SSE 02:50:18 10° E visible
23 Jul ? 02:49:07 25° SSW 02:50:54 36° SSE 02:54:59 10° E visible
24 Jul ? 01:16:52 14° ESE 01:16:52 14° ESE 01:18:07 10° ESE visible
24 Jul ? 02:53:09 25° SW 02:55:20 46° SSE 02:59:35 10° E visible
25 Jul ? 01:20:53 20° ESE 01:20:53 20° ESE 01:23:07 10° E visible
25 Jul ? 02:57:09 22° SW 02:59:48 56° SSE 03:04:09 10° E visible
26 Jul ? 01:24:52 28° SE 01:24:52 28° SE 01:27:51 10° E visible
26 Jul ? 03:01:08 18° WSW 03:04:17 64° S 03:08:41 10° E visible
